Simultaneous Nadir Overpasses (SNOs) Predictions

Prediction of SNOs between GOES-17 and NPP Satellite Orbit:

Table of predicted SNOs for the next 14.0 days since TLE Epoch: 9/28/2024
Index Date Time (GOES-17) GOES-17 Lat,Lon NPP Lat,Lon Distance(km) Time Diff (sec)
1 09/28/2024 08:04:55 -0.01,-104.69 -0.96,-100.52 475.71 80
2 09/29/2024 20:26:47 0.01,-104.71 -0.25,-105.80 125.02 80
3 09/30/2024 20:10:41 0.01,-104.71 0.79,-101.27 393.05 80
4 10/02/2024 08:32:25 -0.00,-104.71 0.38,-106.52 206.50 80
5 10/03/2024 08:10:57 -0.00,-104.71 -0.60,-101.98 311.25 80
6 10/04/2024 20:32:50 -0.01,-104.72 -0.58,-107.26 289.82 80
7 10/05/2024 20:16:42 -0.01,-104.73 0.42,-102.72 228.39 80
8 10/07/2024 08:38:27 0.02,-104.72 0.75,-107.98 370.59 80
9 10/08/2024 08:16:59 0.03,-104.72 -0.26,-103.43 146.81 80
10 10/09/2024 20:38:51 -0.03,-104.72 -0.90,-108.72 455.56 80
11 10/10/2024 20:22:44 -0.03,-104.72 0.11,-104.18 62.11 80
